ECMWFFLT2_850_dewp_072.txt.gz
Dewpoint
-17 -16 -16 -16 -16 -15 -15 -15 -14 -15 -14 -14 -14 -14 -14 -14 -15 -14 -14 -15 -15 -15 -15 -15 -15 -15 -14 -15 -14 -12 -10 -9 -8 -8 -9 -8 -7 -7 -9 -9 -9 -14 -25 -29 -32 -33 -33 -34 -34 -34 -33 -34
-16 -16 -16 -15 -15 -15 -14 -14 -14 -14 -14 -14 -14 -14 -14 -14 -14 -14 -14 -14 -15 -14 -14 -14 -14 -15 -15 -15 -15 -14 -14 -13 -12 -12 -12 -12 -9 -10 -12 -11 -9 -17 -28 -26 -29 -32 -33 -33 -33 -34 -34 -34
-15 -15 -15 -15 -14 -14 -14 -14 -14 -14 -13 -14 -14 -14 -14 -14 -14 -14 -14 -14 -14 -14 -14 -14 -14 -14 -15 -14 -15 -14 -14 -14 -14 -14 -13 -12 -11 -12 -13 -12 -12 -17 -22 -24 -27 -27 -29 -31 -32 -33 -33 -33
-14 -14 -14 -14 -14 -14 -13 -13 -13 -13 -13 -13 -13 -13 -13 -13 -13 -13 -13 -14 -14 -14 -14 -14 -14 -14 -14 -14 -14 -14 -14 -14 -14 -14 -14 -14 -13 -12 -11 -12 -12 -14 -17 -21 -23 -23 -25 -26 -28 -31 -32 -33
-14 -14 -14 -13 -14 -13 -13 -13 -13 -13 -13 -13 -12 -12 -12 -12 -13 -13 -13 -13 -14 -14 -14 -14 -14 -14 -14 -14 -14 -14 -14 -14 -14 -14 -14 -14 -14 -13 -12 -11 -10 -11 -13 -16 -19 -20 -21 -22 -25 -27 -30 -31
-14 -14 -13 -13 -13 -13 -13 -13 -13 -13 -12 -12 -12 -12 -12 -12 -12 -12 -12 -12 -13 -13 -14 -14 -14 -14 -14 -14 -14 -14 -14 -14 -14 -15 -15 -14 -14 -14 -13 -12 -11 -10 -10 -12 -14 -16 -19 -20 -22 -23 -26 -27
-14 -13 -13 -13 -13 -12 -12 -12 -12 -12 -12 -12 -11 -11 -11 -11 -11 -11 -11 -11 -12 -12 -12 -13 -13 -14 -14 -14 -14 -14 -14 -14 -14 -14 -15 -15 -15 -14 -14 -14 -13 -11 -10 -10 -10 -12 -15 -17 -19 -20 -22 -23
-13 -13 -13 -12 -13 -12 -12 -12 -12 -12 -12 -11 -11 -11 -11 -10 -10 -10 -11 -10 -11 -11 -11 -12 -12 -13 -13 -14 -14 -14 -14 -14 -14 -14 -15 -15 -15 -15 -14 -14 -14 -13 -12 -11 -10 -10 -10 -12 -15 -16 -18 -20
-13 -13 -12 -12 -12 -12 -12 -11 -12 -12 -11 -11 -11 -11 -10 -10 -10 -10 -10 -10 -11 -11 -11 -11 -11 -12 -12 -13 -13 -14 -14 -14 -15 -14 -14 -14 -15 -15 -15 -14 -14 -14 -13 -12 -11 -10 -9 -9 -10 -12 -15 -16
-13 -12 -12 -12 -12 -12 -12 -11 -12 -12 -11 -11 -11 -11 -10 -10 -10 -10 -10 -10 -10 -10 -11 -11 -11 -11 -11 -12 -12 -13 -13 -14 -15 -14 -15 -14 -14 -15 -15 -15 -14 -14 -14 -13 -12 -11 -11 -9 -9 -9 -11 -12
-12 -12 -12 -12 -12 -12 -12 -12 -11 -11 -11 -11 -11 -11 -10 -10 -10 -10 -10 -10 -10 -10 -10 -10 -10 -10 -11 -11 -11 -12 -12 -13 -14 -14 -15 -15 -15 -15 -15 -15 -15 -15 -14 -14 -14 -13 -12 -11 -10 -9 -9 -10
-12 -12 -12 -12 -12 -12 -11 -11 -11 -11 -11 -11 -11 -11 -10 -10 -10 -10 -10 -10 -10 -10 -10 -10 -10 -10 -10 -10 -10 -11 -11 -12 -13 -13 -14 -15 -15 -15 -15 -15 -15 -15 -15 -15 -14 -14 -13 -12 -12 -11 -10 -9
-12 -12 -11 -11 -11 -11 -11 -11 -11 -11 -11 -11 -11 -11 -10 -10 -10 -10 -10 -10 -10 -10 -10 -10 -9 -9 -9 -9 -9 -10 -10 -11 -11 -12 -13 -14 -14 -15 -15 -15 -15 -15 -15 -15 -15 -15 -14 -13 -13 -12 -11 -10
-11 -11 -11 -11 -11 -11 -12 -12 -12 -12 -11 -11 -11 -11 -11 -11 -11 -11 -10 -10 -10 -10 -10 -10 -9 -9 -9 -9 -9 -9 -10 -10 -10 -11 -11 -12 -13 -14 -15 -15 -15 -15 -15 -15 -15 -15 -15 -14 -14 -13 -13 -12
-14 -14 -14 -15 -14 -14 -14 -13 -13 -12 -11 -11 -11 -11 -11 -11 -11 -11 -10 -10 -10 -10 -10 -10 -10 -9 -9 -9 -9 -10 -10 -10 -10 -10 -10 -11 -12 -13 -13 -14 -15 -16 -16 -16 -15 -16 -15 -15 -15 -14 -14 -13
-17 -18 -18 -17 -16 -15 -15 -14 -13 -12 -11 -11 -11 -11 -11 -11 -11 -11 -10 -10 -10 -10 -11 -11 -11 -12 -12 -13 -12 -13 -13 -12 -11 -11 -10 -10 -10 -11 -12 -12 -13 -14 -15 -15 -16 -16 -16 -16 -15 -15 -15 -14
-18 -19 -20 -19 -18 -16 -15 -15 -14 -14 -12 -11 -11 -10 -10 -11 -11 -11 -12 -12 -12 -12 -12 -13 -15 -16 -17 -17 -17 -17 -17 -16 -16 -14 -13 -12 -11 -10 -11 -11 -11 -12 -13 -14 -15 -15 -16 -16 -16 -16 -15 -15
-18 -19 -20 -20 -18 -17 -16 -16 -15 -16 -15 -14 -14 -13 -13 -13 -14 -14 -15 -15 -15 -15 -15 -16 -17 -18 -18 -18 -18 -18 -19 -19 -19 -18 -18 -16 -15 -13 -12 -11 -11 -11 -11 -12 -12 -14 -15 -15 -16 -16 -16 -15
-17 -18 -20 -20 -18 -17 -16 -16 -15 -15 -16 -16 -16 -15 -15 -15 -15 -16 -16 -16 -16 -17 -17 -17 -17 -17 -17 -17 -17 -18 -18 -18 -19 -20 -20 -19 -18 -17 -16 -14 -13 -12 -12 -11 -11 -11 -12 -13 -14 -15 -15 -16
-16 -17 -18 -19 -19 -18 -18 -18 -17 -17 -17 -16 -16 -15 -15 -15 -15 -15 -14 -14 -15 -15 -15 -16 -17 -17 -17 -17 -16 -17 -17 -17 -18 -19 -20 -20 -19 -18 -18 -17 -17 -16 -15 -14 -13 -12 -12 -12 -12 -12 -13 -14
-15 -16 -16 -17 -17 -18 -19 -19 -20 -20 -20 -20 -19 -18 -16 -15 -14 -14 -14 -13 -13 -13 -13 -13 -14 -14 -15 -16 -16 -15 -15 -16 -17 -17 -19 -20 -19 -18 -18 -18 -17 -17 -17 -16 -16 -15 -15 -14 -13 -13 -12 -13
-15 -15 -15 -16 -16 -16 -16 -17 -17 -18 -19 -20 -22 -23 -21 -18 -16 -14 -13 -12 -12 -11 -11 -11 -11 -11 -12 -13 -13 -13 -13 -14 -15 -15 -16 -17 -18 -18 -17 -18 -18 -18 -18 -17 -17 -17 -17 -16 -15 -15 -14 -14
-14 -14 -15 -15 -15 -15 -15 -15 -15 -15 -15 -16 -17 -18 -20 -21 -21 -17 -14 -12 -11 -11 -10 -10 -10 -10 -10 -11 -11 -11 -11 -12 -12 -13 -13 -14 -15 -16 -16 -16 -17 -17 -18 -18 -18 -18 -19 -18 -18 -18 -17 -16
-14 -14 -14 -14 -14 -14 -14 -14 -14 -14 -14 -14 -14 -15 -16 -18 -21 -20 -18 -16 -13 -11 -10 -10 -9 -9 -10 -10 -10 -10 -10 -10 -11 -11 -12 -12 -13 -13 -14 -14 -15 -15 -16 -17 -17 -18 -19 -19 -19 -19 -19 -19
-14 -13 -13 -13 -13 -13 -13 -13 -12 -13 -13 -13 -14 -15 -16 -17 -19 -20 -21 -21 -16 -12 -11 -10 -10 -9 -9 -9 -9 -10 -10 -10 -10 -10 -11 -11 -11 -12 -12 -13 -13 -13 -14 -15 -16 -16 -17 -17 -18 -19 -20 -20
-14 -13 -13 -13 -13 -12 -12 -12 -12 -12 -12 -13 -14 -15 -16 -17 -18 -19 -20 -22 -19 -14 -11 -10 -10 -10 -9 -9 -9 -9 -10 -10 -10 -10 -10 -10 -11 -11 -12 -12 -12 -12 -13 -14 -14 -15 -15 -15 -17 -17 -18 -19
-13 -13 -13 -12 -12 -12 -11 -11 -11 -12 -12 -13 -13 -14 -16 -17 -18 -19 -20 -22 -19 -14 -11 -10 -10 -10 -10 -9 -9 -10 -10 -10 -10 -10 -10 -10 -11 -11 -11 -12 -12 -12 -12 -12 -13 -14 -14 -15 -15 -15 -16 -17
-13 -12 -12 -11 -11 -11 -11 -11 -11 -12 -12 -13 -13 -14 -15 -17 -19 -21 -22 -21 -17 -12 -10 -10 -10 -10 -10 -9 -10 -10 -10 -10 -10 -10 -10 -11 -11 -11 -12 -11 -12 -12 -12 -12 -12 -13 -14 -14 -14 -15 -15 -15
-12 -11 -11 -11 -11 -11 -11 -11 -11 -12 -13 -14 -15 -16 -17 -19 -21 -22 -23 -22 -17 -13 -11 -11 -10 -10 -10 -10 -10 -10 -10 -10 -10 -11 -11 -11 -11 -11 -12 -12 -12 -12 -12 -12 -12 -12 -13 -14 -15 -15 -14 -14
-11 -11 -11 -10 -11 -11 -12 -13 -15 -16 -17 -18 -18 -19 -21 -21 -23 -23 -23 -22 -21 -18 -15 -13 -12 -11 -11 -11 -11 -11 -11 -11 -11 -12 -12 -12 -12 -11 -12 -12 -12 -12 -12 -11 -12 -12 -12 -13 -13 -14 -13 -14
-10 -10 -10 -10 -12 -13 -16 -17 -19 -20 -21 -21 -21 -22 -23 -23 -24 -23 -21 -20 -19 -20 -19 -17 -15 -14 -12 -11 -11 -11 -11 -11 -11 -12 -12 -12 -12 -12 -12 -13 -13 -12 -12 -12 -12 -12 -12 -12 -12 -13 -14 -15

ECMWFFLT2_850_dewp_075.txt.gz
Dewpoint
-16 -16 -16 -16 -15 -15 -14 -14 -14 -14 -14 -14 -14 -14 -13 -14 -14 -14 -14 -14 -14 -14 -13 -13 -13 -13 -13 -13 -13 -12 -13 -13 -13 -12 -11 -10 -8 -8 -8 -8 -9 -11 -13 -14 -16 -17 -17 -17 -17 -18 -19 -19
-15 -15 -15 -15 -15 -14 -14 -14 -14 -13 -13 -13 -13 -13 -13 -13 -13 -14 -13 -13 -14 -13 -13 -13 -13 -13 -13 -13 -13 -13 -13 -13 -13 -13 -13 -12 -12 -11 -10 -10 -11 -11 -11 -12 -14 -14 -15 -15 -16 -17 -18 -19
-15 -14 -14 -14 -14 -14 -14 -13 -13 -13 -13 -13 -13 -13 -13 -13 -13 -13 -13 -13 -13 -13 -14 -13 -14 -14 -14 -14 -13 -13 -13 -13 -14 -14 -13 -13 -13 -12 -11 -11 -11 -11 -10 -11 -11 -12 -13 -13 -15 -16 -16 -18
-14 -14 -14 -13 -13 -13 -13 -13 -13 -13 -13 -13 -12 -12 -12 -12 -12 -12 -12 -12 -12 -13 -13 -13 -13 -14 -14 -14 -14 -14 -14 -14 -14 -13 -14 -13 -13 -13 -12 -12 -11 -11 -10 -10 -10 -10 -10 -11 -13 -14 -15 -16
-14 -13 -13 -13 -13 -13 -13 -13 -12 -12 -12 -12 -12 -12 -11 -11 -11 -11 -11 -11 -11 -11 -11 -12 -12 -12 -13 -13 -14 -14 -14 -14 -14 -14 -14 -14 -13 -14 -13 -13 -12 -11 -11 -10 -10 -10 -10 -10 -10 -11 -13 -14
-14 -13 -13 -13 -13 -13 -12 -12 -12 -12 -12 -12 -11 -11 -11 -11 -10 -10 -10 -10 -10 -10 -10 -11 -11 -11 -11 -12 -12 -13 -13 -14 -14 -14 -14 -14 -14 -14 -14 -14 -13 -12 -12 -11 -11 -10 -10 -10 -9 -10 -10 -11
-14 -13 -13 -13 -12 -12 -12 -12 -12 -12 -11 -11 -11 -11 -11 -10 -10 -10 -10 -10 -10 -10 -10 -11 -11 -11 -11 -11 -11 -11 -12 -12 -13 -13 -14 -14 -14 -14 -14 -14 -14 -13 -13 -12 -12 -11 -11 -10 -10 -9 -9 -9
-13 -13 -13 -12 -12 -12 -12 -12 -12 -12 -12 -11 -11 -11 -11 -11 -10 -10 -10 -10 -10 -10 -11 -11 -11 -11 -11 -11 -11 -11 -11 -11 -11 -12 -13 -13 -14 -14 -14 -14 -14 -14 -14 -13 -13 -12 -12 -11 -10 -10 -9 -9
-13 -13 -13 -12 -12 -12 -12 -12 -12 -12 -11 -11 -11 -11 -11 -11 -11 -11 -11 -11 -11 -12 -12 -12 -12 -12 -12 -12 -11 -11 -11 -11 -11 -11 -11 -11 -12 -13 -14 -14 -14 -14 -14 -14 -14 -13 -13 -12 -12 -11 -10 -10
-13 -13 -12 -12 -12 -12 -12 -12 -12 -11 -11 -11 -11 -11 -11 -11 -11 -11 -12 -12 -12 -12 -13 -12 -12 -12 -12 -12 -11 -11 -11 -10 -10 -10 -10 -10 -11 -11 -12 -13 -14 -15 -14 -14 -14 -14 -14 -13 -13 -12 -12 -11
-13 -13 -12 -12 -12 -12 -12 -11 -11 -11 -11 -11 -11 -11 -11 -12 -12 -12 -13 -13 -13 -13 -13 -13 -12 -12 -12 -12 -12 -11 -11 -10 -10 -10 -10 -10 -10 -10 -10 -11 -12 -13 -14 -15 -14 -14 -14 -14 -14 -13 -12 -12
-13 -13 -12 -12 -12 -11 -11 -11 -11 -11 -11 -11 -11 -11 -11 -12 -12 -12 -12 -12 -12 -13 -12 -12 -12 -13 -13 -13 -12 -12 -11 -11 -11 -11 -11 -10 -10 -10 -10 -9 -10 -11 -12 -13 -14 -15 -15 -15 -14 -14 -14 -13
-12 -12 -11 -12 -11 -11 -12 -12 -12 -12 -12 -12 -12 -12 -12 -11 -11 -11 -11 -11 -11 -12 -12 -12 -13 -13 -14 -14 -14 -14 -14 -13 -13 -13 -13 -13 -13 -12 -12 -11 -10 -10 -10 -10 -11 -13 -14 -15 -15 -15 -15 -14
-12 -13 -13 -13 -13 -14 -14 -14 -14 -14 -14 -14 -12 -12 -11 -11 -11 -11 -11 -11 -11 -12 -13 -14 -15 -15 -15 -16 -16 -17 -17 -17 -17 -17 -17 -17 -17 -17 -17 -16 -15 -13 -12 -11 -10 -10 -11 -12 -14 -14 -15 -15
-16 -16 -17 -17 -17 -17 -17 -17 -16 -16 -16 -15 -13 -12 -11 -11 -11 -11 -12 -13 -13 -15 -16 -16 -17 -17 -17 -17 -18 -18 -18 -18 -18 -18 -18 -18 -19 -18 -19 -19 -19 -18 -17 -16 -14 -12 -11 -10 -11 -12 -13 -14
-18 -19 -20 -20 -20 -19 -19 -18 -17 -17 -16 -16 -15 -14 -14 -14 -14 -14 -15 -15 -16 -17 -17 -17 -17 -17 -17 -17 -18 -18 -17 -18 -18 -18 -18 -18 -18 -19 -19 -19 -19 -20 -19 -19 -18 -17 -15 -13 -11 -10 -11 -11
-18 -19 -20 -20 -21 -21 -20 -19 -18 -17 -17 -16 -16 -16 -16 -15 -15 -16 -16 -16 -16 -16 -16 -16 -16 -16 -17 -17 -17 -18 -18 -18 -18 -18 -18 -18 -19 -19 -19 -20 -20 -21 -21 -21 -21 -20 -19 -18 -16 -14 -12 -11
-16 -17 -17 -18 -19 -20 -20 -20 -20 -19 -18 -18 -18 -17 -17 -16 -16 -16 -15 -15 -15 -14 -14 -14 -14 -14 -14 -15 -15 -15 -16 -17 -18 -18 -18 -18 -18 -19 -19 -20 -20 -21 -22 -22 -22 -22 -21 -21 -20 -19 -17 -15
-15 -15 -15 -16 -17 -18 -18 -19 -19 -19 -19 -19 -19 -19 -19 -19 -19 -19 -17 -16 -14 -13 -13 -13 -13 -13 -12 -12 -12 -12 -13 -14 -15 -16 -17 -17 -17 -17 -18 -18 -19 -20 -21 -22 -22 -23 -23 -23 -23 -22 -21 -20
-14 -14 -14 -14 -15 -15 -16 -16 -17 -17 -17 -16 -16 -16 -16 -17 -18 -19 -19 -18 -17 -16 -16 -15 -15 -14 -13 -11 -11 -11 -11 -11 -12 -13 -14 -15 -15 -15 -16 -16 -17 -18 -19 -20 -20 -21 -22 -22 -23 -23 -23 -23
-13 -13 -13 -14 -14 -14 -14 -14 -14 -14 -14 -14 -14 -14 -14 -14 -15 -15 -16 -17 -18 -18 -18 -18 -17 -16 -14 -12 -11 -10 -10 -10 -10 -11 -11 -12 -13 -13 -13 -14 -15 -16 -17 -17 -18 -19 -19 -20 -20 -21 -22 -23
-13 -13 -13 -13 -13 -13 -13 -13 -13 -13 -13 -12 -12 -12 -13 -13 -13 -14 -15 -16 -17 -17 -18 -19 -19 -18 -14 -12 -12 -11 -10 -10 -10 -10 -10 -10 -11 -11 -11 -12 -13 -13 -14 -15 -16 -16 -17 -18 -18 -19 -20 -20
-13 -13 -13 -13 -13 -12 -12 -12 -12 -12 -12 -11 -11 -12 -12 -12 -13 -14 -14 -15 -16 -17 -18 -18 -20 -19 -15 -12 -11 -11 -11 -11 -10 -10 -10 -10 -10 -10 -10 -11 -11 -11 -12 -13 -13 -14 -15 -16 -16 -17 -18 -19
-12 -12 -12 -12 -12 -12 -11 -11 -11 -11 -11 -11 -11 -11 -12 -12 -13 -14 -14 -15 -16 -18 -18 -19 -20 -20 -17 -12 -10 -10 -10 -10 -10 -10 -10 -10 -10 -10 -10 -10 -10 -11 -11 -11 -12 -13 -14 -14 -15 -16 -17 -18
-12 -12 -12 -12 -11 -11 -11 -11 -10 -10 -10 -11 -11 -12 -13 -14 -14 -15 -16 -17 -18 -19 -20 -20 -19 -18 -16 -12 -10 -10 -10 -10 -10 -10 -10 -10 -10 -10 -10 -10 -10 -10 -11 -11 -11 -12 -12 -13 -13 -14 -15 -17
-13 -12 -12 -11 -11 -11 -10 -10 -10 -10 -11 -12 -13 -14 -15 -17 -18 -18 -19 -20 -20 -21 -21 -21 -19 -17 -14 -12 -11 -10 -10 -10 -10 -10 -10 -10 -10 -10 -10 -10 -10 -11 -11 -12 -12 -12 -12 -12 -13 -14 -14 -16
-12 -12 -11 -11 -10 -10 -10 -10 -10 -11 -13 -14 -15 -17 -19 -21 -22 -22 -22 -23 -23 -23 -23 -22 -20 -18 -15 -13 -11 -11 -10 -10 -10 -10 -10 -10 -10 -10 -10 -10 -10 -11 -11 -12 -12 -12 -12 -12 -12 -12 -13 -14
-11 -11 -11 -10 -10 -10 -10 -11 -12 -13 -15 -16 -19 -21 -23 -25 -25 -25 -26 -26 -26 -26 -26 -25 -23 -22 -19 -16 -14 -12 -11 -11 -11 -10 -10 -10 -10 -10 -10 -10 -11 -11 -11 -11 -12 -13 -13 -13 -12 -12 -13 -13
-10 -10 -10 -10 -10 -10 -11 -12 -13 -15 -17 -20 -23 -26 -27 -28 -29 -29 -30 -30 -31 -32 -31 -30 -28 -27 -24 -22 -19 -17 -14 -12 -11 -11 -11 -11 -11 -11 -11 -11 -11 -11 -12 -12 -12 -12 -13 -13 -12 -12 -12 -12
-10 -10 -10 -10 -10 -12 -13 -15 -18 -20 -23 -27 -29 -30 -31 -32 -33 -34 -34 -36 -36 -37 -38 -38 -37 -34 -32 -30 -27 -24 -20 -17 -14 -13 -12 -11 -11 -10 -10 -11 -11 -11 -12 -12 -12 -12 -13 -13 -13 -12 -12 -12
-10 -10 -11 -12 -13 -16 -18 -21 -24 -27 -31 -34 -35 -35 -36 -36 -36 -37 -37 -38 -38 -39 -39 -39 -40 -40 -40 -39 -37 -33 -28 -24 -21 -17 -15 -13 -12 -11 -10 -10 -10 -11 -11 -11 -12 -12 -12 -13 -13 -13 -12 -12

ECMWFFLT2_850_dewp_081.txt.gz
Dewpoint
-16 -16 -15 -15 -15 -14 -14 -14 -14 -14 -13 -13 -13 -13 -13 -13 -13 -13 -13 -13 -13 -13 -13 -13 -13 -13 -13 -13 -13 -13 -13 -13 -13 -13 -14 -13 -14 -14 -14 -14 -14 -14 -14 -15 -15 -14 -14 -13 -12 -11 -10 -10
-17 -16 -16 -14 -15 -14 -14 -14 -13 -13 -13 -13 -13 -12 -13 -12 -13 -12 -12 -12 -12 -13 -12 -12 -12 -12 -12 -12 -12 -12 -12 -12 -13 -13 -13 -13 -13 -13 -13 -13 -13 -14 -14 -14 -15 -15 -14 -14 -14 -13 -11 -11
-17 -15 -15 -14 -14 -14 -13 -14 -13 -13 -13 -13 -13 -12 -12 -12 -12 -12 -12 -12 -11 -11 -11 -11 -11 -11 -11 -11 -11 -11 -12 -12 -12 -12 -13 -13 -13 -13 -12 -13 -13 -13 -14 -14 -14 -14 -14 -14 -14 -14 -13 -12
-15 -15 -15 -14 -14 -14 -13 -13 -13 -13 -13 -13 -12 -12 -12 -12 -12 -11 -11 -11 -11 -10 -10 -10 -11 -11 -11 -11 -12 -12 -12 -12 -12 -13 -13 -13 -13 -13 -13 -13 -13 -13 -13 -13 -14 -14 -14 -14 -15 -15 -14 -13
-9 -14 -14 -13 -13 -13 -13 -13 -13 -13 -12 -12 -12 -12 -12 -12 -11 -9 -9 -10 -11 -11 -11 -11 -12 -12 -12 -12 -13 -13 -13 -13 -13 -14 -14 -15 -15 -15 -15 -15 -15 -15 -14 -13 -13 -13 -13 -14 -14 -14 -14 -14
-9 -15 -13 -13 -13 -13 -13 -13 -12 -12 -12 -12 -12 -12 -12 -12 -9 -7 -9 -10 -11 -11 -11 -12 -12 -13 -13 -13 -14 -14 -15 -15 -16 -16 -17 -18 -18 -18 -18 -18 -17 -17 -17 -16 -15 -14 -13 -13 -13 -13 -14 -14
-14 -14 -12 -12 -13 -13 -13 -13 -13 -12 -12 -12 -12 -12 -12 -11 -8 -8 -11 -10 -11 -11 -11 -11 -12 -13 -13 -14 -15 -16 -17 -18 -19 -19 -20 -20 -20 -20 -20 -20 -20 -19 -19 -19 -19 -17 -16 -15 -14 -13 -13 -13
-12 -11 -12 -12 -13 -13 -12 -12 -12 -12 -12 -12 -12 -12 -12 -11 -9 -11 -11 -10 -11 -11 -10 -11 -12 -13 -14 -15 -16 -17 -18 -19 -20 -19 -20 -20 -20 -20 -20 -20 -20 -20 -19 -20 -19 -19 -19 -18 -17 -15 -14 -13
-12 -12 -13 -13 -13 -13 -13 -13 -12 -12 -12 -12 -12 -12 -12 -12 -11 -12 -11 -10 -11 -10 -10 -11 -11 -12 -12 -14 -16 -18 -19 -19 -19 -19 -19 -19 -20 -19 -19 -20 -19 -20 -19 -19 -19 -19 -20 -19 -19 -18 -17 -15
-13 -14 -14 -13 -14 -13 -13 -12 -12 -11 -11 -11 -12 -12 -12 -11 -10 -10 -9 -9 -10 -10 -10 -11 -11 -11 -13 -16 -17 -17 -18 -18 -18 -19 -19 -19 -19 -20 -20 -20 -20 -20 -20 -20 -20 -20 -20 -20 -20 -20 -19 -19
-15 -16 -14 -14 -14 -13 -12 -11 -11 -11 -11 -11 -12 -11 -11 -11 -9 -8 -8 -8 -8 -9 -10 -11 -12 -14 -15 -17 -17 -17 -18 -19 -20 -19 -20 -20 -20 -21 -21 -22 -22 -23 -23 -23 -24 -24 -24 -23 -23 -22 -21 -20
-15 -14 -14 -13 -13 -12 -12 -11 -10 -10 -11 -10 -10 -11 -11 -11 -9 -8 -8 -8 -9 -10 -11 -13 -15 -18 -17 -17 -17 -17 -18 -18 -19 -19 -19 -20 -20 -20 -21 -21 -21 -22 -23 -23 -24 -25 -25 -26 -27 -26 -25 -24
-13 -13 -13 -12 -12 -12 -11 -11 -11 -11 -11 -9 -9 -11 -12 -12 -11 -10 -9 -9 -10 -11 -12 -15 -15 -16 -15 -15 -16 -15 -16 -16 -16 -18 -18 -18 -18 -18 -18 -18 -18 -19 -20 -21 -22 -23 -24 -25 -25 -26 -26 -27
-11 -11 -11 -11 -11 -12 -12 -12 -13 -12 -11 -10 -11 -14 -15 -15 -14 -14 -12 -11 -13 -13 -13 -14 -12 -12 -12 -12 -13 -11 -12 -13 -15 -17 -17 -17 -17 -17 -16 -16 -17 -17 -18 -18 -19 -20 -21 -23 -23 -24 -25 -25
-10 -10 -11 -13 -14 -15 -16 -15 -14 -14 -13 -13 -16 -18 -18 -18 -18 -18 -16 -16 -18 -17 -17 -15 -12 -13 -12 -11 -11 -9 -10 -12 -16 -18 -18 -18 -18 -19 -18 -18 -18 -17 -17 -17 -18 -18 -19 -21 -22 -23 -24 -24
-12 -13 -15 -16 -17 -18 -19 -18 -17 -17 -17 -17 -17 -18 -18 -17 -17 -16 -16 -16 -16 -16 -16 -16 -15 -15 -15 -13 -10 -10 -11 -14 -18 -18 -18 -17 -16 -17 -17 -18 -18 -16 -15 -15 -16 -15 -16 -18 -20 -22 -23 -23
-16 -16 -17 -17 -17 -17 -17 -17 -17 -16 -16 -15 -15 -15 -15 -14 -14 -13 -13 -13 -13 -13 -13 -13 -14 -14 -14 -14 -11 -12 -15 -17 -18 -17 -16 -15 -15 -14 -12 -12 -13 -12 -13 -13 -14 -14 -14 -15 -17 -19 -20 -22
-15 -15 -15 -15 -15 -15 -14 -14 -14 -14 -13 -13 -13 -12 -12 -12 -12 -12 -12 -12 -12 -12 -12 -12 -13 -13 -13 -13 -13 -14 -16 -16 -16 -17 -17 -15 -15 -13 -11 -11 -10 -10 -11 -12 -12 -12 -13 -13 -14 -15 -16 -18
-14 -14 -14 -14 -13 -13 -13 -13 -12 -12 -12 -12 -11 -11 -11 -11 -11 -11 -11 -12 -12 -12 -12 -13 -13 -13 -14 -13 -14 -14 -14 -15 -16 -17 -17 -15 -14 -13 -12 -12 -11 -10 -10 -11 -11 -11 -11 -12 -12 -14 -14 -16
-14 -14 -13 -13 -13 -13 -12 -12 -12 -12 -11 -11 -10 -10 -10 -11 -11 -12 -13 -13 -13 -13 -14 -14 -15 -15 -15 -15 -15 -15 -15 -16 -16 -16 -16 -15 -15 -14 -13 -11 -11 -11 -11 -11 -11 -10 -10 -11 -12 -13 -14 -14
-14 -14 -13 -13 -13 -12 -12 -12 -11 -11 -10 -10 -10 -10 -10 -11 -13 -14 -15 -15 -15 -16 -17 -18 -18 -18 -18 -18 -18 -18 -18 -18 -17 -17 -16 -15 -14 -13 -13 -12 -11 -10 -11 -11 -10 -10 -10 -11 -12 -13 -13 -13
-14 -13 -13 -13 -12 -12 -11 -11 -10 -10 -10 -9 -9 -10 -10 -12 -14 -16 -17 -17 -18 -19 -20 -21 -22 -21 -21 -21 -21 -20 -20 -20 -18 -17 -15 -15 -15 -14 -14 -13 -11 -10 -10 -11 -11 -11 -11 -12 -13 -14 -14 -13
-13 -13 -12 -12 -11 -11 -10 -10 -10 -10 -9 -9 -10 -10 -12 -14 -17 -18 -19 -20 -21 -22 -23 -24 -24 -24 -24 -24 -23 -23 -23 -22 -20 -19 -18 -18 -18 -17 -15 -13 -13 -12 -11 -11 -11 -12 -13 -15 -15 -15 -14 -13
-12 -11 -11 -10 -10 -9 -9 -10 -10 -10 -10 -10 -11 -13 -15 -17 -20 -21 -22 -24 -24 -25 -26 -26 -26 -26 -27 -27 -27 -26 -26 -25 -25 -24 -24 -24 -21 -19 -17 -15 -13 -12 -10 -10 -10 -12 -14 -15 -13 -11 -11 -12
-10 -9 -9 -9 -9 -9 -9 -10 -11 -11 -12 -13 -14 -16 -19 -21 -22 -23 -25 -27 -28 -29 -29 -29 -30 -30 -30 -30 -29 -30 -30 -29 -30 -30 -28 -27 -23 -19 -15 -13 -11 -11 -10 -10 -11 -12 -12 -12 -11 -12 -12 -12
-8 -9 -9 -9 -10 -10 -11 -12 -13 -14 -14 -16 -17 -20 -22 -23 -25 -26 -28 -30 -31 -32 -33 -33 -34 -33 -34 -33 -33 -33 -33 -32 -33 -32 -30 -27 -23 -20 -16 -14 -14 -13 -12 -11 -10 -11 -11 -12 -13 -14 -13 -12
-9 -9 -10 -10 -11 -12 -13 -14 -15 -16 -17 -19 -20 -22 -24 -26 -27 -28 -30 -32 -33 -34 -36 -36 -35 -35 -35 -35 -35 -35 -34 -35 -34 -32 -30 -27 -22 -21 -20 -18 -16 -14 -12 -10 -10 -10 -11 -12 -13 -13 -13 -13
-9 -10 -10 -11 -12 -13 -14 -16 -17 -19 -20 -21 -23 -24 -26 -27 -28 -30 -31 -32 -34 -35 -36 -37 -37 -37 -36 -37 -37 -37 -37 -36 -36 -34 -29 -25 -23 -22 -21 -18 -17 -15 -13 -11 -10 -10 -11 -12 -13 -13 -14 -14
-10 -11 -11 -12 -13 -14 -15 -17 -19 -21 -23 -25 -27 -28 -29 -30 -31 -32 -33 -34 -36 -37 -38 -38 -38 -38 -38 -39 -38 -38 -39 -38 -38 -37 -30 -26 -27 -29 -25 -21 -20 -20 -18 -14 -12 -11 -11 -11 -12 -13 -13 -13
-12 -13 -14 -14 -15 -17 -19 -21 -24 -26 -28 -29 -31 -32 -33 -34 -35 -35 -35 -36 -37 -38 -39 -39 -39 -40 -39 -40 -40 -39 -40 -40 -39 -38 -34 -32 -35 -38 -33 -28 -25 -22 -19 -16 -13 -11 -11 -11 -11 -11 -12 -12
-13 -14 -15 -16 -18 -21 -24 -26 -28 -30 -32 -34 -34 -36 -36 -35 -36 -37 -37 -37 -38 -38 -38 -39 -39 -40 -40 -40 -40 -40 -40 -40 -40 -39 -38 -39 -40 -40 -38 -34 -27 -20 -17 -16 -14 -12 -11 -11 -11 -11 -10 -10

ECMWFFLT2_850_dewp_084.txt.gz
Dewpoint
-6 -7 -9 -12 -12 -13 -13 -14 -14 -14 -14 -13 -13 -13 -13 -13 -12 -12 -12 -13 -13 -13 -13 -13 -13 -12 -12 -12 -12 -12 -12 -13 -14 -14 -15 -16 -16 -16 -17 -17 -17 -18 -18 -18 -18 -18 -18 -18 -17 -17 -16 -16
-15 -14 -14 -14 -14 -14 -14 -14 -14 -14 -13 -13 -13 -13 -13 -12 -12 -12 -12 -12 -12 -12 -11 -11 -11 -11 -11 -11 -12 -12 -13 -13 -14 -15 -16 -17 -17 -18 -18 -19 -19 -19 -19 -19 -19 -20 -20 -20 -19 -18 -18 -17
-16 -16 -15 -15 -15 -14 -14 -14 -13 -13 -13 -13 -13 -13 -13 -12 -13 -12 -12 -12 -12 -11 -11 -11 -11 -11 -11 -12 -13 -14 -14 -14 -15 -16 -17 -18 -19 -19 -20 -20 -20 -20 -21 -20 -20 -21 -21 -21 -21 -20 -19 -18
-17 -16 -16 -15 -15 -14 -14 -13 -13 -13 -13 -13 -13 -13 -13 -12 -12 -12 -12 -12 -12 -11 -11 -12 -12 -13 -13 -14 -15 -15 -15 -15 -16 -17 -18 -19 -20 -20 -21 -22 -22 -22 -21 -21 -22 -22 -22 -22 -23 -23 -22 -21
-15 -15 -15 -15 -14 -14 -14 -13 -13 -13 -13 -13 -13 -13 -12 -12 -12 -11 -10 -10 -12 -12 -12 -13 -13 -14 -14 -15 -16 -16 -16 -17 -17 -18 -19 -20 -20 -21 -21 -21 -22 -22 -22 -22 -23 -23 -24 -24 -24 -25 -24 -23
-10 -15 -14 -14 -14 -13 -13 -13 -13 -13 -13 -13 -12 -13 -12 -12 -11 -8 -7 -9 -11 -11 -12 -12 -13 -14 -14 -15 -16 -16 -17 -18 -19 -19 -20 -20 -20 -20 -20 -21 -21 -22 -23 -23 -24 -24 -24 -24 -25 -24 -25 -24
-8 -15 -12 -12 -12 -13 -13 -13 -13 -13 -12 -12 -12 -12 -12 -12 -9 -7 -8 -10 -11 -11 -12 -12 -13 -14 -15 -16 -16 -17 -18 -19 -20 -20 -20 -19 -20 -20 -20 -21 -21 -22 -23 -24 -25 -26 -26 -26 -26 -25 -25 -25
-8 -9 -8 -9 -10 -11 -11 -10 -12 -12 -12 -13 -12 -12 -12 -12 -11 -10 -11 -11 -10 -10 -11 -11 -12 -13 -14 -14 -15 -17 -18 -19 -20 -20 -20 -20 -20 -21 -22 -22 -23 -23 -23 -25 -26 -27 -28 -28 -28 -27 -27 -26
-7 -8 -8 -9 -9 -10 -10 -10 -11 -10 -10 -12 -12 -12 -12 -12 -12 -11 -11 -10 -8 -8 -10 -10 -11 -10 -10 -11 -13 -15 -15 -15 -17 -19 -19 -19 -20 -21 -22 -22 -23 -24 -24 -25 -26 -27 -28 -28 -30 -30 -30 -30
-9 -10 -10 -9 -9 -9 -8 -9 -9 -8 -8 -10 -11 -11 -12 -12 -9 -8 -8 -7 -7 -7 -8 -9 -9 -9 -10 -11 -12 -13 -12 -12 -15 -17 -18 -17 -17 -19 -20 -21 -23 -24 -24 -25 -26 -26 -27 -27 -28 -29 -29 -31
-11 -12 -11 -10 -11 -9 -7 -8 -7 -7 -8 -9 -10 -10 -11 -11 -8 -7 -7 -7 -7 -7 -8 -9 -9 -10 -13 -13 -11 -12 -11 -11 -13 -14 -15 -15 -15 -17 -18 -19 -20 -22 -23 -25 -26 -26 -27 -27 -27 -28 -29 -29
-11 -11 -10 -11 -11 -11 -9 -8 -7 -8 -8 -8 -9 -9 -10 -11 -9 -8 -8 -8 -8 -8 -8 -9 -9 -11 -12 -11 -10 -11 -10 -10 -11 -11 -13 -14 -15 -16 -17 -19 -19 -20 -21 -23 -24 -25 -26 -27 -27 -27 -27 -28
-9 -8 -9 -9 -10 -10 -9 -9 -9 -8 -8 -7 -8 -9 -12 -13 -11 -9 -9 -8 -8 -9 -10 -10 -10 -9 -9 -9 -9 -10 -10 -10 -10 -10 -13 -15 -16 -16 -17 -18 -19 -19 -20 -21 -22 -23 -23 -24 -25 -25 -26 -27
-8 -8 -8 -9 -9 -9 -9 -9 -9 -9 -8 -9 -10 -13 -16 -17 -15 -14 -13 -12 -12 -14 -14 -14 -13 -10 -9 -11 -11 -10 -9 -9 -9 -11 -14 -16 -17 -16 -16 -17 -18 -18 -18 -19 -19 -20 -20 -21 -22 -23 -23 -24
-8 -9 -9 -10 -10 -11 -11 -11 -11 -12 -12 -13 -15 -17 -16 -15 -15 -14 -14 -14 -14 -14 -13 -13 -13 -12 -12 -13 -13 -11 -9 -9 -10 -12 -15 -16 -16 -15 -15 -16 -17 -17 -16 -17 -17 -17 -18 -18 -19 -19 -20 -21
-10 -11 -12 -13 -14 -14 -13 -14 -14 -14 -14 -13 -13 -13 -13 -12 -12 -12 -12 -12 -12 -12 -12 -12 -12 -12 -12 -12 -11 -10 -10 -10 -12 -13 -14 -14 -13 -13 -14 -14 -14 -13 -13 -14 -14 -15 -15 -16 -16 -17 -18 -19
-12 -13 -14 -14 -14 -13 -12 -12 -13 -12 -12 -11 -11 -11 -11 -11 -10 -10 -11 -12 -13 -13 -13 -13 -13 -13 -13 -12 -11 -11 -12 -12 -13 -14 -14 -14 -14 -14 -14 -13 -12 -12 -12 -13 -13 -14 -13 -14 -15 -16 -17 -17
-13 -13 -13 -13 -13 -12 -11 -11 -12 -12 -11 -11 -10 -10 -10 -10 -10 -10 -11 -12 -14 -16 -16 -16 -16 -15 -14 -13 -12 -13 -13 -14 -15 -16 -16 -15 -15 -13 -12 -12 -12 -13 -13 -13 -12 -12 -12 -13 -14 -15 -15 -15
-12 -12 -12 -12 -12 -12 -12 -11 -11 -11 -11 -10 -10 -10 -10 -10 -10 -10 -11 -13 -16 -18 -18 -18 -18 -18 -17 -15 -16 -17 -17 -18 -18 -18 -17 -16 -14 -13 -13 -13 -14 -13 -13 -13 -13 -13 -14 -14 -14 -13 -13 -14
-12 -12 -12 -12 -12 -12 -12 -12 -11 -10 -10 -10 -10 -9 -9 -10 -10 -11 -13 -15 -17 -19 -20 -20 -21 -21 -19 -18 -20 -21 -21 -21 -21 -19 -18 -15 -14 -13 -13 -13 -14 -14 -14 -15 -15 -14 -13 -12 -12 -13 -13 -15
-12 -12 -12 -11 -11 -11 -10 -10 -10 -10 -10 -10 -9 -10 -10 -11 -12 -13 -14 -16 -18 -19 -21 -22 -23 -24 -23 -22 -23 -24 -24 -23 -23 -20 -16 -15 -14 -13 -14 -15 -16 -17 -17 -17 -16 -16 -15 -15 -15 -15 -15 -18
-12 -11 -11 -10 -9 -9 -9 -9 -10 -11 -11 -11 -11 -11 -12 -13 -14 -14 -16 -18 -19 -20 -22 -23 -25 -26 -26 -25 -26 -26 -25 -26 -25 -22 -18 -18 -18 -18 -19 -20 -20 -21 -20 -20 -19 -19 -18 -17 -17 -18 -19 -20
-10 -9 -8 -8 -8 -8 -9 -10 -11 -12 -12 -12 -13 -13 -14 -15 -16 -16 -18 -19 -20 -21 -23 -26 -27 -28 -28 -29 -28 -28 -28 -28 -28 -26 -25 -25 -26 -26 -25 -23 -22 -21 -19 -17 -15 -15 -16 -17 -18 -19 -19 -19
-8 -8 -8 -8 -9 -9 -10 -11 -12 -14 -14 -14 -15 -15 -17 -18 -18 -19 -20 -21 -22 -23 -25 -27 -29 -30 -31 -31 -31 -30 -30 -31 -31 -31 -30 -30 -29 -26 -25 -24 -22 -18 -14 -13 -14 -16 -18 -17 -16 -16 -17 -19
-8 -8 -9 -9 -10 -10 -11 -12 -13 -14 -15 -15 -16 -17 -19 -20 -21 -21 -22 -23 -23 -24 -25 -27 -29 -31 -32 -33 -32 -32 -33 -33 -33 -33 -32 -31 -29 -26 -24 -24 -23 -21 -17 -15 -16 -16 -15 -15 -15 -17 -17 -17
-9 -9 -10 -10 -11 -11 -12 -12 -13 -14 -14 -15 -16 -17 -18 -20 -22 -23 -24 -25 -26 -27 -27 -28 -29 -30 -31 -32 -33 -34 -35 -35 -36 -35 -34 -34 -30 -27 -25 -25 -25 -23 -17 -14 -13 -11 -11 -14 -17 -17 -16 -14
-10 -10 -10 -11 -11 -12 -12 -13 -14 -14 -15 -15 -16 -18 -19 -20 -23 -24 -25 -27 -28 -29 -30 -30 -30 -30 -32 -33 -34 -36 -35 -36 -37 -35 -37 -36 -30 -26 -27 -29 -28 -23 -16 -12 -11 -11 -13 -15 -14 -16 -17 -17
-11 -11 -12 -12 -13 -13 -14 -14 -15 -16 -16 -17 -18 -19 -21 -23 -25 -26 -27 -29 -30 -31 -32 -32 -33 -33 -34 -36 -36 -37 -37 -37 -38 -37 -38 -36 -30 -27 -28 -31 -32 -29 -24 -19 -16 -15 -14 -13 -13 -14 -16 -15
-12 -13 -13 -14 -14 -15 -15 -16 -17 -18 -18 -19 -21 -22 -25 -26 -28 -28 -30 -31 -31 -32 -32 -31 -33 -35 -36 -38 -38 -39 -39 -39 -40 -39 -38 -36 -32 -30 -30 -33 -35 -36 -35 -31 -24 -16 -13 -12 -12 -12 -13 -14
-13 -14 -14 -14 -15 -16 -16 -17 -19 -20 -21 -23 -25 -27 -29 -30 -30 -30 -31 -32 -31 -33 -33 -30 -31 -36 -38 -39 -40 -39 -39 -39 -40 -40 -39 -38 -36 -35 -36 -37 -38 -37 -34 -32 -26 -18 -14 -13 -12 -12 -12 -13
-14 -14 -14 -15 -15 -16 -17 -19 -21 -22 -24 -27 -29 -31 -32 -33 -33 -31 -32 -34 -33 -34 -34 -31 -32 -37 -39 -40 -40 -40 -40 -40 -39 -39 -40 -39 -39 -39 -40 -40 -39 -36 -33 -33 -30 -24 -19 -15 -13 -12 -12 -11

ECMWFFLT2_850_dewp_090.txt.gz
Dewpoint
2 2 2 2 2 1 0 -2 -4 -8 -11 -14 -13 -13 -13 -12 -12 -12 -12 -12 -11 -11 -11 -11 -11 -12 -12 -12 -13 -13 -14 -15 -16 -17 -17 -17 -18 -18 -18 -19 -19 -19 -20 -19 -19 -18 -18 -18 -17 -18 -18 -17
1 1 1 -0 -1 -2 -5 -9 -12 -13 -13 -13 -13 -13 -13 -13 -12 -13 -12 -11 -10 -10 -11 -11 -12 -12 -12 -13 -13 -14 -15 -16 -17 -17 -18 -18 -19 -19 -19 -20 -20 -20 -21 -21 -20 -20 -20 -19 -19 -19 -19 -18
-2 -3 -5 -7 -7 -8 -11 -13 -13 -13 -13 -13 -13 -12 -12 -13 -12 -12 -12 -10 -9 -10 -10 -11 -12 -11 -12 -12 -13 -14 -15 -16 -16 -17 -18 -19 -19 -19 -20 -20 -20 -21 -20 -21 -21 -21 -21 -21 -21 -21 -20 -20
-8 -10 -12 -12 -12 -13 -13 -13 -13 -13 -13 -13 -12 -12 -12 -12 -12 -11 -11 -10 -10 -10 -10 -11 -11 -11 -11 -12 -13 -14 -15 -16 -16 -18 -18 -19 -20 -19 -20 -20 -20 -20 -20 -21 -21 -22 -23 -23 -23 -23 -24 -23
-14 -15 -15 -14 -13 -13 -13 -12 -12 -12 -12 -12 -12 -12 -12 -12 -12 -11 -10 -9 -9 -10 -10 -10 -10 -10 -10 -11 -12 -13 -15 -16 -17 -18 -18 -19 -19 -20 -20 -20 -21 -21 -22 -22 -23 -24 -24 -25 -26 -26 -27 -27
-13 -14 -13 -12 -11 -10 -10 -10 -10 -11 -11 -12 -12 -12 -12 -12 -11 -11 -10 -9 -9 -9 -9 -9 -9 -9 -10 -11 -12 -13 -15 -17 -18 -18 -18 -19 -19 -20 -21 -21 -22 -23 -24 -24 -25 -26 -26 -27 -27 -28 -28 -28
-8 -10 -10 -9 -9 -9 -8 -9 -10 -10 -10 -11 -11 -11 -11 -11 -11 -11 -10 -10 -9 -9 -8 -8 -8 -9 -9 -11 -12 -14 -15 -17 -18 -18 -18 -18 -19 -20 -21 -22 -23 -23 -24 -25 -26 -25 -26 -26 -27 -28 -28 -28
-6 -8 -9 -9 -9 -8 -8 -8 -8 -9 -9 -9 -8 -8 -9 -10 -10 -10 -10 -9 -8 -8 -8 -8 -8 -9 -9 -11 -12 -14 -15 -17 -18 -19 -19 -19 -19 -19 -20 -22 -22 -23 -23 -23 -24 -24 -25 -25 -26 -27 -27 -28
-6 -7 -8 -8 -7 -7 -7 -7 -7 -7 -7 -7 -7 -7 -8 -9 -9 -9 -9 -8 -8 -8 -8 -8 -8 -9 -10 -11 -13 -15 -16 -17 -18 -18 -19 -19 -18 -18 -19 -21 -21 -21 -21 -21 -22 -22 -24 -24 -25 -25 -25 -26
-7 -7 -7 -7 -6 -6 -6 -6 -6 -6 -6 -6 -7 -7 -8 -9 -9 -9 -9 -8 -8 -8 -8 -8 -8 -9 -11 -13 -16 -17 -18 -17 -18 -18 -19 -19 -18 -17 -18 -19 -20 -20 -19 -20 -21 -21 -22 -22 -23 -23 -23 -24
-8 -8 -7 -6 -6 -6 -6 -6 -6 -6 -6 -7 -7 -8 -9 -9 -10 -10 -9 -9 -8 -8 -9 -10 -11 -12 -14 -16 -17 -18 -18 -18 -18 -18 -19 -18 -18 -18 -18 -18 -18 -18 -18 -18 -19 -20 -21 -21 -22 -22 -23 -22
-8 -8 -7 -7 -6 -6 -7 -7 -6 -7 -7 -8 -8 -9 -10 -11 -13 -13 -12 -11 -11 -12 -13 -13 -14 -15 -16 -16 -16 -16 -17 -17 -17 -17 -17 -17 -17 -17 -18 -18 -18 -17 -18 -18 -18 -19 -20 -20 -21 -22 -22 -22
-8 -8 -8 -8 -8 -8 -8 -7 -7 -8 -8 -8 -9 -10 -11 -14 -15 -15 -15 -14 -14 -14 -15 -15 -14 -14 -15 -15 -16 -16 -16 -16 -16 -16 -16 -16 -16 -16 -17 -18 -18 -18 -18 -18 -19 -19 -20 -20 -20 -21 -21 -22
-8 -8 -8 -8 -9 -9 -9 -9 -9 -9 -9 -10 -11 -12 -13 -14 -14 -13 -13 -13 -13 -13 -13 -13 -13 -14 -14 -15 -16 -17 -17 -17 -17 -17 -17 -17 -17 -17 -17 -18 -19 -19 -19 -20 -20 -20 -20 -20 -20 -21 -20 -21
-8 -8 -8 -9 -9 -9 -9 -10 -10 -11 -11 -12 -13 -13 -13 -13 -12 -12 -12 -12 -12 -12 -12 -12 -13 -13 -14 -15 -15 -16 -17 -18 -18 -18 -18 -18 -18 -18 -19 -19 -20 -20 -21 -21 -21 -21 -21 -21 -21 -20 -20 -20
-9 -9 -9 -10 -10 -10 -10 -11 -11 -12 -12 -13 -13 -12 -12 -11 -11 -11 -11 -11 -11 -11 -12 -12 -12 -13 -13 -14 -14 -15 -16 -17 -19 -19 -20 -19 -19 -20 -20 -20 -20 -21 -21 -22 -22 -22 -22 -22 -22 -21 -21 -20
-10 -11 -11 -11 -11 -11 -11 -11 -11 -12 -12 -11 -11 -11 -10 -10 -10 -10 -10 -10 -11 -11 -12 -12 -12 -12 -13 -13 -14 -14 -14 -15 -17 -18 -19 -20 -21 -21 -21 -21 -22 -22 -22 -23 -23 -23 -23 -23 -22 -22 -22 -21
-12 -12 -12 -12 -12 -12 -12 -12 -11 -11 -10 -10 -10 -9 -9 -9 -10 -10 -10 -11 -11 -11 -11 -11 -12 -12 -12 -13 -13 -13 -14 -14 -15 -16 -17 -19 -20 -21 -21 -22 -22 -22 -22 -23 -22 -23 -23 -22 -23 -23 -23 -23
-13 -12 -12 -12 -11 -10 -10 -10 -9 -9 -9 -9 -9 -9 -9 -9 -9 -9 -10 -10 -10 -10 -11 -11 -11 -11 -11 -12 -13 -13 -13 -14 -14 -15 -16 -17 -18 -18 -20 -20 -21 -22 -22 -22 -22 -23 -23 -23 -23 -23 -23 -23
-11 -10 -10 -9 -9 -8 -8 -8 -8 -8 -8 -8 -8 -8 -9 -9 -9 -9 -9 -9 -10 -10 -10 -10 -11 -11 -11 -12 -12 -13 -13 -14 -15 -15 -16 -17 -18 -18 -18 -19 -19 -20 -21 -22 -22 -22 -22 -23 -23 -23 -24 -24
-9 -8 -8 -8 -8 -8 -8 -8 -8 -8 -8 -8 -8 -9 -9 -9 -9 -10 -10 -11 -11 -11 -11 -11 -12 -12 -12 -13 -13 -14 -14 -15 -16 -16 -16 -17 -18 -20 -19 -19 -20 -20 -21 -22 -21 -22 -23 -23 -24 -24 -25 -25
-8 -8 -8 -8 -8 -8 -8 -8 -8 -9 -9 -9 -9 -10 -10 -10 -11 -12 -13 -13 -13 -14 -14 -14 -14 -14 -14 -14 -15 -15 -16 -17 -17 -19 -19 -18 -20 -22 -23 -22 -23 -23 -23 -23 -22 -22 -23 -24 -26 -26 -26 -27
-9 -9 -9 -9 -9 -9 -10 -10 -10 -10 -10 -11 -11 -11 -12 -12 -13 -14 -15 -15 -16 -16 -17 -17 -17 -16 -17 -17 -18 -18 -19 -20 -20 -21 -22 -22 -22 -22 -24 -26 -27 -27 -26 -25 -24 -25 -25 -26 -26 -25 -27 -27
-14 -13 -13 -13 -12 -12 -12 -12 -12 -13 -13 -13 -13 -14 -14 -15 -15 -16 -16 -17 -17 -18 -18 -19 -19 -19 -20 -21 -21 -22 -23 -23 -24 -25 -26 -26 -25 -25 -25 -27 -29 -30 -29 -27 -26 -26 -26 -26 -26 -26 -27 -28
-18 -17 -16 -16 -15 -15 -15 -15 -15 -15 -15 -15 -16 -16 -16 -17 -18 -18 -19 -20 -20 -20 -20 -21 -21 -22 -23 -24 -25 -26 -27 -28 -29 -30 -30 -30 -30 -30 -29 -29 -31 -32 -31 -30 -28 -26 -25 -25 -26 -28 -28 -30
-20 -19 -18 -16 -15 -15 -15 -15 -15 -16 -16 -17 -18 -19 -19 -20 -21 -22 -23 -24 -24 -24 -24 -25 -26 -26 -26 -27 -29 -29 -31 -32 -32 -34 -34 -34 -34 -35 -35 -34 -35 -35 -33 -32 -30 -29 -28 -27 -27 -27 -29 -29
-20 -21 -20 -17 -14 -14 -14 -15 -16 -16 -18 -20 -21 -22 -22 -23 -24 -26 -27 -28 -28 -29 -29 -30 -30 -30 -31 -32 -32 -32 -33 -34 -35 -36 -36 -37 -37 -37 -37 -37 -37 -37 -34 -31 -31 -32 -31 -29 -29 -29 -29 -28
-18 -19 -20 -19 -16 -14 -15 -15 -17 -19 -22 -26 -27 -27 -27 -27 -29 -31 -32 -32 -33 -33 -32 -32 -33 -33 -34 -35 -35 -36 -36 -36 -37 -38 -38 -38 -39 -39 -39 -39 -38 -39 -37 -35 -35 -34 -31 -29 -27 -24 -23 -24
-16 -17 -19 -19 -18 -16 -16 -17 -19 -23 -29 -33 -33 -34 -33 -33 -34 -34 -34 -34 -35 -35 -35 -35 -35 -35 -36 -36 -37 -36 -37 -38 -38 -39 -39 -38 -39 -39 -39 -39 -39 -39 -39 -39 -39 -37 -33 -28 -22 -20 -21 -24
-15 -16 -18 -19 -19 -17 -17 -18 -22 -29 -36 -37 -37 -38 -38 -37 -37 -35 -35 -35 -36 -37 -37 -37 -37 -37 -38 -38 -38 -38 -38 -38 -38 -39 -39 -39 -39 -39 -39 -39 -39 -40 -40 -40 -40 -40 -36 -27 -20 -19 -21 -23
-14 -16 -18 -19 -19 -19 -19 -22 -28 -35 -38 -38 -38 -38 -38 -37 -37 -36 -36 -35 -36 -37 -37 -37 -37 -37 -38 -39 -39 -39 -38 -39 -39 -39 -39 -39 -39 -39 -39 -39 -39 -38 -39 -39 -39 -40 -38 -32 -26 -24 -24 -23

ECMWFFLT2_850_dewp_093.txt.gz
Dewpoint
2 1 2 2 1 -0 -2 -6 -9 -11 -12 -12 -13 -12 -13 -12 -12 -11 -9 -8 -8 -9 -9 -10 -11 -11 -11 -10 -11 -12 -13 -14 -15 -16 -17 -17 -18 -18 -19 -19 -20 -20 -20 -20 -20 -20 -19 -19 -18 -18 -19 -17
-0 -1 -1 -0 -3 -7 -10 -12 -13 -12 -13 -13 -13 -13 -13 -12 -12 -12 -10 -10 -9 -9 -10 -10 -11 -11 -11 -9 -8 -11 -13 -14 -15 -15 -17 -17 -18 -19 -19 -20 -20 -20 -21 -21 -20 -21 -20 -20 -21 -20 -20 -19
-4 -6 -8 -9 -10 -13 -14 -14 -13 -13 -13 -13 -13 -13 -13 -13 -12 -12 -12 -12 -12 -12 -12 -11 -11 -11 -11 -10 -8 -10 -12 -13 -15 -15 -17 -17 -18 -19 -19 -20 -20 -20 -20 -21 -21 -21 -21 -21 -22 -21 -22 -22
-11 -10 -13 -14 -12 -12 -12 -12 -13 -12 -12 -13 -13 -13 -12 -12 -12 -12 -12 -12 -12 -12 -12 -12 -12 -11 -10 -10 -10 -11 -12 -13 -14 -16 -17 -17 -18 -18 -19 -20 -20 -20 -20 -21 -21 -21 -22 -22 -23 -23 -24 -24
-14 -12 -11 -10 -8 -8 -9 -9 -9 -10 -10 -11 -11 -11 -12 -11 -11 -12 -12 -12 -12 -12 -12 -12 -11 -11 -10 -10 -10 -11 -11 -12 -14 -15 -17 -17 -18 -18 -19 -19 -20 -21 -21 -22 -23 -23 -23 -25 -25 -25 -26 -26
-9 -10 -9 -8 -7 -7 -7 -8 -8 -8 -8 -9 -9 -10 -10 -10 -10 -10 -11 -11 -11 -11 -11 -11 -10 -10 -10 -10 -10 -11 -12 -12 -14 -15 -17 -18 -18 -18 -18 -18 -19 -21 -22 -23 -23 -24 -24 -25 -26 -26 -27 -27
-5 -7 -8 -8 -8 -7 -7 -7 -7 -7 -7 -7 -7 -7 -8 -9 -9 -9 -10 -10 -9 -9 -9 -9 -9 -9 -9 -10 -10 -11 -12 -13 -15 -16 -17 -18 -18 -19 -18 -18 -18 -19 -21 -22 -22 -23 -24 -24 -25 -26 -27 -27
-4 -5 -6 -7 -8 -8 -8 -7 -7 -7 -6 -6 -6 -6 -7 -8 -8 -9 -9 -9 -9 -8 -8 -8 -8 -8 -8 -9 -11 -12 -14 -16 -17 -18 -18 -18 -18 -19 -19 -18 -17 -18 -19 -20 -21 -20 -21 -22 -23 -24 -25 -26
-4 -4 -4 -5 -7 -7 -8 -8 -7 -7 -7 -6 -6 -6 -7 -8 -8 -8 -8 -8 -8 -8 -8 -8 -8 -9 -10 -11 -13 -15 -17 -18 -18 -18 -18 -19 -19 -19 -19 -19 -18 -18 -19 -19 -20 -20 -20 -20 -21 -22 -23 -24
-5 -5 -5 -6 -6 -7 -7 -7 -7 -7 -7 -6 -6 -7 -8 -8 -9 -9 -9 -9 -9 -9 -9 -10 -10 -12 -13 -15 -16 -16 -16 -17 -17 -17 -17 -17 -17 -17 -17 -18 -18 -18 -18 -19 -19 -19 -19 -19 -20 -20 -21 -22
-6 -7 -7 -7 -6 -6 -7 -7 -7 -7 -7 -7 -7 -8 -8 -9 -10 -11 -12 -12 -12 -12 -13 -13 -14 -15 -15 -15 -15 -15 -15 -15 -16 -17 -17 -17 -17 -17 -17 -16 -17 -17 -18 -18 -18 -18 -19 -19 -19 -19 -20 -20
-7 -7 -7 -7 -7 -7 -7 -7 -7 -8 -7 -8 -8 -8 -9 -10 -11 -12 -13 -14 -14 -14 -14 -14 -14 -14 -14 -14 -14 -14 -14 -15 -15 -16 -17 -18 -18 -18 -17 -18 -17 -17 -18 -18 -18 -19 -19 -19 -19 -20 -20 -20
-7 -7 -7 -8 -8 -8 -8 -9 -9 -9 -8 -9 -9 -9 -10 -11 -12 -13 -13 -13 -13 -13 -12 -12 -12 -12 -12 -12 -13 -13 -13 -14 -14 -15 -15 -16 -17 -18 -19 -19 -19 -19 -19 -19 -19 -19 -20 -20 -20 -20 -20 -20
-7 -7 -8 -8 -9 -9 -9 -9 -9 -9 -10 -10 -11 -12 -12 -13 -13 -12 -12 -11 -11 -11 -11 -11 -11 -11 -12 -12 -12 -12 -13 -13 -13 -14 -14 -15 -15 -16 -17 -18 -19 -19 -20 -20 -20 -20 -20 -21 -21 -21 -21 -22
-8 -8 -8 -9 -9 -9 -10 -10 -10 -11 -11 -12 -12 -13 -12 -12 -11 -11 -10 -10 -10 -10 -10 -10 -10 -11 -11 -11 -11 -11 -12 -12 -13 -13 -13 -13 -14 -14 -15 -16 -17 -18 -19 -19 -20 -20 -21 -21 -21 -22 -22 -22
-9 -9 -9 -10 -10 -10 -11 -11 -12 -12 -12 -12 -12 -12 -11 -10 -10 -9 -9 -9 -9 -9 -9 -9 -10 -10 -10 -10 -10 -11 -11 -11 -12 -12 -13 -13 -13 -14 -14 -15 -16 -17 -18 -18 -19 -20 -21 -21 -22 -22 -22 -23
-10 -10 -11 -11 -12 -12 -12 -13 -13 -12 -12 -11 -11 -10 -9 -9 -8 -8 -8 -8 -8 -8 -8 -8 -9 -9 -9 -9 -9 -10 -10 -10 -11 -11 -12 -12 -13 -13 -14 -14 -15 -15 -16 -17 -18 -18 -20 -20 -21 -22 -21 -22
-11 -12 -12 -12 -13 -12 -12 -12 -11 -10 -9 -9 -9 -8 -8 -8 -8 -8 -8 -8 -8 -8 -8 -8 -8 -8 -9 -9 -9 -9 -10 -10 -10 -10 -11 -11 -12 -12 -13 -13 -13 -14 -14 -15 -15 -16 -17 -18 -19 -19 -20 -20
-12 -12 -12 -12 -12 -11 -10 -10 -9 -8 -8 -8 -8 -7 -7 -7 -7 -8 -8 -8 -8 -8 -8 -8 -8 -9 -9 -10 -10 -10 -11 -11 -11 -11 -11 -11 -11 -11 -12 -12 -13 -13 -13 -13 -14 -14 -15 -16 -17 -17 -17 -18
-10 -10 -9 -9 -9 -9 -8 -8 -8 -8 -8 -8 -8 -8 -8 -8 -8 -8 -8 -9 -9 -9 -9 -10 -10 -10 -11 -11 -12 -12 -13 -13 -12 -12 -12 -12 -13 -12 -12 -12 -12 -13 -13 -13 -13 -13 -14 -14 -15 -15 -16 -16
-9 -9 -9 -10 -10 -10 -10 -10 -10 -9 -9 -9 -9 -9 -9 -9 -10 -10 -10 -11 -11 -11 -11 -12 -12 -12 -13 -13 -14 -14 -14 -15 -15 -14 -14 -13 -14 -14 -14 -14 -14 -14 -13 -13 -13 -13 -13 -14 -14 -15 -15 -15
-12 -13 -14 -15 -16 -15 -15 -15 -14 -14 -13 -13 -13 -13 -13 -12 -13 -13 -13 -13 -13 -14 -14 -14 -14 -14 -15 -15 -15 -16 -16 -17 -17 -17 -17 -16 -16 -17 -17 -17 -17 -16 -16 -15 -14 -13 -13 -14 -14 -14 -14 -15
-18 -18 -19 -19 -20 -20 -20 -19 -18 -17 -16 -16 -16 -16 -16 -16 -16 -17 -17 -17 -17 -17 -17 -17 -17 -18 -18 -18 -18 -18 -18 -19 -19 -19 -20 -19 -19 -19 -20 -21 -21 -21 -20 -18 -16 -16 -15 -15 -15 -15 -15 -15
-18 -18 -19 -20 -20 -21 -22 -22 -22 -21 -19 -18 -17 -18 -18 -19 -20 -21 -21 -20 -20 -20 -20 -20 -21 -21 -21 -21 -21 -21 -21 -21 -22 -22 -22 -22 -22 -22 -22 -23 -25 -26 -24 -21 -20 -19 -18 -18 -18 -18 -18 -19
-17 -18 -19 -19 -20 -20 -21 -23 -24 -23 -21 -20 -19 -20 -21 -23 -24 -25 -25 -25 -25 -25 -25 -25 -25 -25 -25 -26 -25 -25 -26 -25 -26 -26 -27 -27 -27 -27 -26 -25 -28 -29 -28 -26 -23 -20 -19 -19 -20 -21 -22 -23
-18 -18 -18 -18 -18 -18 -19 -21 -23 -24 -23 -22 -21 -22 -25 -28 -30 -30 -30 -30 -30 -30 -30 -30 -30 -30 -30 -30 -31 -30 -31 -31 -31 -31 -31 -31 -31 -31 -31 -30 -31 -32 -32 -31 -29 -28 -23 -20 -21 -21 -22 -23
-17 -17 -17 -17 -16 -16 -17 -19 -22 -24 -25 -24 -25 -27 -30 -33 -34 -35 -35 -35 -35 -34 -34 -34 -34 -34 -34 -34 -35 -34 -35 -35 -35 -35 -35 -35 -35 -34 -34 -34 -35 -35 -36 -36 -37 -36 -30 -27 -27 -24 -24 -23
-16 -16 -15 -15 -15 -15 -16 -18 -21 -24 -27 -29 -31 -33 -35 -36 -36 -37 -38 -37 -37 -37 -36 -36 -36 -36 -36 -36 -37 -37 -38 -38 -38 -38 -38 -38 -38 -38 -37 -36 -37 -36 -38 -40 -36 -33 -32 -35 -33 -27 -26 -25
-14 -14 -14 -14 -14 -14 -15 -17 -19 -23 -28 -33 -35 -37 -36 -37 -37 -36 -37 -37 -37 -37 -37 -37 -37 -37 -37 -37 -37 -38 -38 -38 -39 -40 -39 -39 -39 -39 -39 -38 -38 -38 -39 -39 -37 -35 -32 -27 -24 -24 -26 -28
-13 -13 -13 -14 -14 -14 -15 -16 -18 -21 -27 -34 -37 -37 -37 -37 -37 -37 -36 -37 -37 -37 -37 -37 -38 -38 -38 -38 -39 -38 -39 -39 -39 -40 -40 -40 -39 -39 -39 -38 -38 -39 -39 -39 -38 -38 -32 -24 -20 -21 -24 -26
-13 -13 -13 -13 -13 -14 -14 -15 -17 -21 -27 -35 -37 -37 -38 -37 -38 -38 -37 -38 -38 -38 -38 -38 -38 -38 -38 -38 -38 -39 -39 -39 -39 -39 -40 -39 -39 -39 -39 -38 -38 -38 -38 -39 -39 -38 -34 -29 -25 -25 -26 -26